�������l�o���
Date,Time,MP-1(��Sv/h),MP-2(��Sv/h),MP-3(��Sv/h),MP-4(��Sv/h),MP-5(��Sv/h),MP-6(��Sv/h),MP-7(��Sv/h),MP-8(��Sv/h),����,����(m/s),���J
2019/09/23,00:00,0.728,1.018,0.713,1.286,0.927,0.414,0.726,0.689,�k,3.9,�L
2019/09/23,00:10,0.726,1.020,0.716,1.284,0.926,0.417,0.728,0.688,�k,4.1,�L
2019/09/23,00:20,0.727,1.020,0.716,1.285,0.924,0.416,0.728,0.687,�k,3.7,�L
2019/09/23,00:30,0.725,1.022,0.715,1.286,0.925,0.415,0.727,0.689,�k,2.9,�L
2019/09/23,00:40,0.724,1.013,0.711,1.281,0.924,0.414,0.724,0.685,�k,4.4,�L
2019/09/23,00:50,0.724,1.012,0.711,1.274,0.919,0.416,0.724,0.685,�k,4.7,�L
2019/09/23,01:00,0.722,1.012,0.712,1.273,0.920,0.415,0.723,0.684,�k�k��,3.8,�L
2019/09/23,01:10,0.723,1.008,0.709,1.269,0.915,0.416,0.724,0.684,�k�k��,4.4,�L
2019/09/23,01:20,0.719,1.003,0.707,1.263,0.910,0.416,0.722,0.682,�k�k��,5.3,�L
2019/09/23,01:30,0.719,1.000,0.705,1.256,0.907,0.413,0.719,0.682,�k�k��,5.0,�L
2019/09/23,01:40,0.717,0.997,0.703,1.251,0.905,0.413,0.720,0.682,�k�k��,3.7,�L
2019/09/23,01:50,0.715,0.995,0.703,1.245,0.903,0.414,0.716,0.680,�k�k��,4.3,�L
2019/09/23,02:00,0.717,0.996,0.699,1.246,0.903,0.412,0.718,0.681,�k�k��,6.6,�L
2019/09/23,02:10,0.716,0.995,0.700,1.244,0.901,0.413,0.717,0.681,�k�k��,5.7,�L
2019/09/23,02:20,0.715,0.994,0.698,1.239,0.900,0.414,0.716,0.680,�k�k��,6.8,�L
2019/09/23,02:30,0.713,0.990,0.697,1.240,0.900,0.412,0.716,0.679,�k�k��,3.7,�L
2019/09/23,02:40,0.707,0.983,0.694,1.228,0.892,0.411,0.713,0.675,�k,4.0,�L
2019/09/23,02:50,0.706,0.979,0.690,1.223,0.889,0.410,0.712,0.674,�k,4.1,�L
2019/09/23,03:00,0.708,0.981,0.691,1.224,0.892,0.410,0.710,0.674,�k�k��,5.2,�L
2019/09/23,03:10,0.708,0.982,0.693,1.223,0.890,0.409,0.713,0.676,�k,5.6,�L
2019/09/23,03:20,0.710,0.983,0.691,1.224,0.889,0.412,0.711,0.675,�k�k��,5.5,�L
2019/09/23,03:30,0.711,0.986,0.691,1.226,0.892,0.409,0.712,0.675,�k�k��,4.7,�L
2019/09/23,03:40,0.710,0.984,0.691,1.225,0.892,0.410,0.713,0.677,�k�k��,4.6,�L
2019/09/23,03:50,0.711,0.982,0.692,1.225,0.887,0.410,0.713,0.675,�k�k��,4.6,�L
2019/09/23,04:00,0.709,0.982,0.690,1.223,0.888,0.411,0.712,0.675,�k,6.0,�L
2019/09/23,04:10,0.710,0.982,0.689,1.219,0.884,0.410,0.711,0.674,�k�k��,5.5,�L
2019/09/23,04:20,0.706,0.978,0.687,1.215,0.881,0.408,0.710,0.673,�k�k��,7.1,�L
2019/09/23,04:30,0.708,0.980,0.687,1.218,0.884,0.410,0.710,0.675,�k�k��,7.6,�L
2019/09/23,04:40,0.708,0.978,0.688,1.215,0.886,0.411,0.711,0.674,�k�k��,6.9,�L
2019/09/23,04:50,0.708,0.982,0.688,1.218,0.885,0.410,0.711,0.672,�k,8.2,�L
2019/09/23,05:00,0.709,0.979,0.687,1.219,0.885,0.411,0.713,0.674,�k,8.2,�L
2019/09/23,05:10,0.707,0.979,0.688,1.216,0.886,0.410,0.711,0.673,�k,7.2,�L
2019/09/23,05:20,0.708,0.981,0.687,1.216,0.883,0.410,0.711,0.675,�k,7.3,�L
2019/09/23,05:30,0.707,0.978,0.686,1.219,0.885,0.409,0.712,0.672,�k�k��,9.3,�L
2019/09/23,05:40,0.708,0.982,0.686,1.218,0.882,0.407,0.711,0.674,�k,8.4,�L
2019/09/23,05:50,0.710,0.983,0.688,1.218,0.885,0.408,0.710,0.674,�k�k��,7.4,�L
2019/09/23,06:00,0.709,0.982,0.686,1.222,0.885,0.409,0.712,0.675,�k�k��,6.3,�L
2019/09/23,06:10,0.710,0.986,0.689,1.223,0.887,0.408,0.712,0.675,�k�k��,6.0,�L
2019/09/23,06:20,0.711,0.986,0.686,1.225,0.886,0.407,0.713,0.675,�k�k��,6.8,��
2019/09/23,06:30,0.712,0.988,0.689,1.224,0.889,0.408,0.713,0.675,�k��,6.4,��
2019/09/23,06:40,0.710,0.988,0.688,1.224,0.889,0.409,0.712,0.676,�k��,7.6,��
2019/09/23,06:50,0.711,0.988,0.689,1.228,0.890,0.408,0.714,0.676,�k�k��,6.2,��
2019/09/23,07:00,0.713,0.990,0.689,1.231,0.889,0.407,0.712,0.676,�k��,7.6,��
2019/09/23,07:10,0.710,0.992,0.688,1.231,0.890,0.410,0.713,0.676,�k��,6.6,��
2019/09/23,07:20,0.714,0.991,0.690,1.232,0.892,0.407,0.713,0.676,�k��,6.8,��
2019/09/23,07:30,0.712,0.992,0.692,1.231,0.893,0.408,0.716,0.678,�k�k��,6.6,��
2019/09/23,07:40,0.711,0.991,0.691,1.232,0.891,0.407,0.715,0.677,�k�k��,6.7,��
2019/09/23,07:50,0.713,0.993,0.691,1.233,0.891,0.409,0.714,0.677,�k�k��,6.8,��
2019/09/23,08:00,0.714,0.994,0.693,1.234,0.892,0.407,0.714,0.677,�k�k��,6.7,��
2019/09/23,08:10,0.713,0.991,0.692,1.235,0.897,0.407,0.714,0.676,�k�k��,4.9,��
2019/09/23,08:20,0.715,0.995,0.691,1.235,0.896,0.408,0.716,0.678,�k�k��,4.3,��
2019/09/23,08:30,0.715,0.995,0.690,1.236,0.894,0.408,0.715,0.678,�k�k��,4.6,��
2019/09/23,08:40,0.714,0.995,0.692,1.236,0.897,0.409,0.716,0.679,�k�k��,5.3,��
2019/09/23,08:50,0.715,0.997,0.690,1.235,0.898,0.410,0.719,0.678,�k�k��,3.2,��
2019/09/23,09:00,0.717,0.997,0.692,1.236,0.899,0.407,0.717,0.679,�k,4.3,��
2019/09/23,09:10,0.717,0.997,0.692,1.238,0.898,0.408,0.718,0.678,�k,4.8,�L
2019/09/23,09:20,0.716,0.999,0.693,1.239,0.897,0.410,0.717,0.680,�k,4.2,��
2019/09/23,09:30,0.717,1.001,0.691,1.241,0.900,0.409,0.717,0.679,�k�k��,4.4,��
2019/09/23,09:40,0.717,1.000,0.693,1.239,0.899,0.408,0.717,0.681,�k,1.9,�L
2019/09/23,09:50,0.717,0.998,0.693,1.238,0.900,0.409,0.718,0.679,�k�k��,2.0,��
2019/09/23,10:00,0.715,1.000,0.693,1.239,0.897,0.409,0.716,0.678,�k,2.3,��
2019/09/23,10:10,0.716,0.999,0.693,1.243,0.901,0.408,0.716,0.678,�k�k��,3.3,�L
2019/09/23,10:20,0.716,1.000,0.695,1.240,0.900,0.408,0.718,0.678,�k�k��,2.8,�L
2019/09/23,10:30,0.715,1.001,0.694,1.243,0.902,0.409,0.717,0.681,�k,2.6,�L
2019/09/23,10:40,0.717,1.001,0.693,1.242,0.901,0.410,0.718,0.681,�k,2.3,�L
2019/09/23,10:50,0.717,1.004,0.696,1.243,0.901,0.410,0.718,0.680,�k�k��,2.0,�L
2019/09/23,11:00,0.717,1.002,0.695,1.243,0.902,0.408,0.718,0.680,�k�k��,1.7,�L
2019/09/23,11:10,0.719,1.003,0.697,1.244,0.904,0.410,0.718,0.681,�k�k��,1.7,�L
2019/09/23,11:20,0.717,1.002,0.696,1.244,0.903,0.410,0.718,0.681,�k��,2.2,��
2019/09/23,11:30,0.718,1.005,0.697,1.244,0.903,0.410,0.719,0.681,�k,1.9,��
2019/09/23,11:40,0.718,1.005,0.697,1.240,0.904,0.410,0.718,0.681,�k�k��,1.2,��
2019/09/23,11:50,0.718,1.003,0.698,1.242,0.905,0.410,0.719,0.681,�k�k��,1.2,��
2019/09/23,12:00,0.717,1.005,0.697,1.241,0.903,0.411,0.718,0.682,�k�k��,0.8,��
2019/09/23,12:10,0.718,1.004,0.699,1.243,0.905,0.409,0.719,0.681,-,CALM,��
2019/09/23,12:20,0.722,1.004,0.699,1.245,0.904,0.410,0.719,0.682,��쓌,0.9,��
2019/09/23,12:30,0.717,1.007,0.697,1.244,0.907,0.410,0.719,0.681,��쓌,1.7,��
2019/09/23,12:40,0.718,1.005,0.699,1.243,0.904,0.409,0.720,0.682,��쓌,4.5,�L
2019/09/23,12:50,0.719,1.004,0.698,1.244,0.904,0.411,0.720,0.681,��쓌,4.4,��
2019/09/23,13:00,0.720,1.004,0.698,1.245,0.903,0.411,0.721,0.682,�쓌,5.1,��
2019/09/23,13:10,0.720,1.004,0.699,1.244,0.905,0.411,0.719,0.681,��쓌,5.8,��
2019/09/23,13:20,0.722,1.005,0.697,1.247,0.904,0.413,0.720,0.681,��쓌,6.6,��
2019/09/23,13:30,0.721,1.005,0.698,1.245,0.906,0.412,0.720,0.682,��쓌,6.1,��
2019/09/23,13:40,0.721,1.005,0.698,1.244,0.906,0.410,0.720,0.683,��쓌,6.0,��
2019/09/23,13:50,0.722,1.006,0.699,1.244,0.905,0.413,0.721,0.683,��쓌,6.7,��
2019/09/23,14:00,0.720,1.005,0.698,1.246,0.906,0.412,0.721,0.682,��쓌,6.6,��
2019/09/23,14:10,0.720,1.007,0.698,1.247,0.907,0.411,0.720,0.683,��쓌,6.1,��
2019/09/23,14:20,0.720,1.007,0.697,1.245,0.905,0.412,0.720,0.682,��쓌,7.7,��
2019/09/23,14:30,0.724,1.010,0.698,1.247,0.908,0.414,0.720,0.683,��쓌,9.5,��
2019/09/23,14:40,0.722,1.008,0.697,1.245,0.908,0.414,0.723,0.683,��쓌,10.3,�L
2019/09/23,14:50,0.722,1.009,0.699,1.245,0.908,0.413,0.722,0.682,��,10.5,��
2019/09/23,15:00,0.725,1.012,0.698,1.246,0.909,0.416,0.722,0.684,��,12.1,��
2019/09/23,15:10,0.723,1.011,0.699,1.247,0.908,0.416,0.723,0.682,��,11.3,��
2019/09/23,15:20,0.725,1.010,0.698,1.247,0.908,0.416,0.722,0.682,��,11.6,��
2019/09/23,15:30,0.724,1.010,0.699,1.245,0.907,0.416,0.724,0.683,��쓌,12.8,��
2019/09/23,15:40,0.724,1.012,0.699,1.245,0.910,0.416,0.723,0.683,��,13.0,��
2019/09/23,15:50,0.725,1.011,0.700,1.247,0.910,0.418,0.723,0.684,��,13.1,��
2019/09/23,16:00,0.724,1.011,0.699,1.246,0.909,0.418,0.723,0.683,��,13.3,��
2019/09/23,16:10,0.727,1.013,0.700,1.245,0.910,0.418,0.724,0.684,��,12.4,��
2019/09/23,16:20,0.727,1.011,0.699,1.246,0.911,0.419,0.724,0.682,��,11.1,��
2019/09/23,16:30,0.725,1.011,0.698,1.247,0.912,0.421,0.724,0.684,��,11.3,��
2019/09/23,16:40,0.725,1.011,0.701,1.251,0.910,0.420,0.725,0.682,��,9.5,��
2019/09/23,16:50,0.725,1.013,0.702,1.251,0.910,0.418,0.722,0.683,��,5.5,��
2019/09/23,17:00,0.727,1.016,0.701,1.248,0.911,0.420,0.724,0.683,��,7.0,��
2019/09/23,17:10,0.727,1.015,0.703,1.249,0.908,0.423,0.723,0.684,��,9.9,��
2019/09/23,17:20,0.726,1.016,0.702,1.252,0.912,0.423,0.723,0.683,��,9.9,��
2019/09/23,17:30,0.726,1.017,0.702,1.250,0.913,0.422,0.725,0.684,��,9.2,��
2019/09/23,17:40,0.727,1.017,0.704,1.251,0.912,0.421,0.723,0.685,��,9.5,��
2019/09/23,17:50,0.727,1.016,0.703,1.248,0.915,0.422,0.725,0.683,��,10.8,��
2019/09/23,18:00,0.728,1.018,0.704,1.249,0.914,0.422,0.726,0.683,��,11.4,��
2019/09/23,18:10,0.727,1.018,0.704,1.252,0.913,0.424,0.725,0.685,��,11.6,��
2019/09/23,18:20,0.727,1.016,0.705,1.253,0.914,0.424,0.724,0.686,��쐼,12.0,��
2019/09/23,18:30,0.726,1.017,0.703,1.252,0.915,0.424,0.726,0.685,��쐼,12.4,��
2019/09/23,18:40,0.727,1.017,0.705,1.250,0.914,0.423,0.725,0.686,��쐼,11.6,��
2019/09/23,18:50,0.729,1.016,0.705,1.253,0.915,0.423,0.723,0.686,��쐼,10.6,��
2019/09/23,19:00,0.729,1.016,0.706,1.250,0.915,0.423,0.723,0.686,��쐼,9.0,��
2019/09/23,19:10,0.726,1.016,0.705,1.251,0.913,0.423,0.724,0.685,��쐼,8.6,��
2019/09/23,19:20,0.727,1.016,0.704,1.252,0.914,0.423,0.726,0.686,�쐼,8.3,��
2019/09/23,19:30,0.728,1.017,0.705,1.252,0.916,0.422,0.724,0.687,�쐼,7.1,��
2019/09/23,19:40,0.728,1.016,0.705,1.250,0.914,0.423,0.724,0.687,���쐼,7.9,��
2019/09/23,19:50,0.729,1.018,0.705,1.252,0.914,0.421,0.725,0.685,�쐼,9.0,��
2019/09/23,20:00,0.730,1.017,0.705,1.253,0.915,0.423,0.725,0.687,�쐼,9.8,��
2019/09/23,20:10,0.729,1.013,0.705,1.248,0.916,0.425,0.726,0.686,���쐼,10.0,��
2019/09/23,20:20,0.730,1.017,0.706,1.253,0.916,0.423,0.726,0.687,���쐼,9.3,��
2019/09/23,20:30,0.728,1.013,0.705,1.255,0.913,0.423,0.726,0.687,���k��,10.0,��
2019/09/23,20:40,0.728,1.018,0.705,1.251,0.917,0.422,0.725,0.686,��,10.3,��
2019/09/23,20:50,0.728,1.018,0.706,1.257,0.916,0.422,0.725,0.687,��,12.8,��
2019/09/23,21:00,0.728,1.016,0.705,1.253,0.917,0.423,0.723,0.687,��,12.7,��
2019/09/23,21:10,0.727,1.015,0.706,1.257,0.915,0.423,0.727,0.686,��,15.8,��
2019/09/23,21:20,0.729,1.015,0.708,1.257,0.917,0.421,0.726,0.685,��,14.7,��
2019/09/23,21:30,0.728,1.016,0.707,1.257,0.916,0.422,0.722,0.687,��,11.8,��
2019/09/23,21:40,0.727,1.017,0.706,1.255,0.918,0.421,0.726,0.687,��,11.3,��
2019/09/23,21:50,0.728,1.016,0.706,1.255,0.916,0.422,0.726,0.687,��,11.9,��
2019/09/23,22:00,0.728,1.019,0.705,1.257,0.918,0.420,0.725,0.687,��,11.3,��
2019/09/23,22:10,0.728,1.018,0.708,1.257,0.915,0.421,0.724,0.686,��,11.6,��
2019/09/23,22:20,0.728,1.017,0.707,1.258,0.918,0.422,0.723,0.687,���k��,11.8,��
2019/09/23,22:30,0.729,1.015,0.706,1.256,0.918,0.421,0.724,0.687,��,11.0,��
2019/09/23,22:40,0.728,1.017,0.706,1.259,0.918,0.421,0.725,0.688,��,11.4,��
2019/09/23,22:50,0.729,1.015,0.708,1.256,0.919,0.421,0.725,0.688,��,10.8,��
2019/09/23,23:00,0.730,1.017,0.707,1.259,0.918,0.421,0.726,0.686,���k��,11.9,��
2019/09/23,23:10,0.728,1.017,0.709,1.259,0.920,0.420,0.724,0.688,��,9.5,��
2019/09/23,23:20,0.728,1.018,0.707,1.257,0.917,0.421,0.726,0.688,��,13.3,��
2019/09/23,23:30,0.728,1.017,0.706,1.260,0.920,0.420,0.726,0.686,���k��,10.7,��
2019/09/23,23:40,0.728,1.018,0.708,1.261,0.918,0.421,0.725,0.687,���k��,11.3,��
2019/09/23,23:50,0.729,1.016,0.705,1.262,0.917,0.420,0.725,0.687,���k��,9.3,��
